[Iaude] MPEC X297: 2023 XS13 [a=0.88,e=0.30,i=1.4,H=24.3]

mpec at marsden.cfa.harvard.edu mpec at marsden.cfa.harvard.edu
Fri Dec 15 02:58:06 EST 2023


M.P.E.C. 2023-X297                            Issued 2023 December 15, 07:56 UT

     The Minor Planet Electronic Circulars contain information on unusual
         minor planets, routine data on comets and natural satellites,
         and occasional editorial announcements.  They are published
    on behalf of Division F of the International Astronomical Union by the
          Minor Planet Center, Smithsonian Astrophysical Observatory,
                          Cambridge, MA 02138, U.S.A.
			  
             Prepared using the Tamkin Foundation Computer Network

                              MPC at CFA.HARVARD.EDU
            URL https://www.minorplanetcenter.net/    ISSN 1523-6714

                                   2023 XS13                                    


Observations:
     K23X13S* C2023 12 13.40163408 07 23.851+12 35 03.88         22.66GVEX297V00
     K23X13S  C2023 12 13.40653308 07 22.832+12 35 03.98         22.16GVEX297V00
     K23X13S  C2023 12 13.41142608 07 21.853+12 35 04.02               VEX297V00
     K23X13S  C2023 12 13.41631308 07 20.896+12 35 04.20         22.69GVEX297V00
     K23X13S  C2023 12 13.46924608 07 12.314+12 35 12.14         21.52GVEX297F51
     K23X13S  C2023 12 13.49992308 07 06.132+12 35 12.62         22.52GVEX297F51
     K23X13S mC2023 12 13.52838308 06 58.410+12 35 02.65         21.91GVEX297V00
     K23X13S mC2023 12 13.53003508 06 58.064+12 35 02.47         22.01GVEX297V00
     K23X13S mC2023 12 13.53169008 06 57.733+12 35 02.22         22.24GVEX297V00
     K23X13S mC2023 12 13.53334208 06 57.434+12 35 02.00         22.33GVEX297V00
     K23X13S KC2023 12 14.31936508 04 30.05 +12 35 08.9          21.5 GVEX297H21
     K23X13S KC2023 12 14.32514308 04 28.84 +12 35 09.0          22.3 GVEX297H21
     K23X13S KC2023 12 14.32803108 04 28.26 +12 35 08.9          22.1 GVEX297H21
     K23X13S KC2023 12 14.33101608 04 27.63 +12 35 09.3          22.1 GVEX297H21
     K23X13S KC2023 12 15.28993008 01 16.40 +12 35 37.5          22.1 GVEX297H21
     K23X13S KC2023 12 15.31192908 01 11.53 +12 35 38.3          22.1 GVEX297H21

Observer details:
F51 Pan-STARRS 1, Haleakala.  Observers J. Herman, T. Lowe, P. Minguez, A.
    Schultz, I. Smith.  Measurers K. Chambers, T. de Boer, J. Fairlamb, H.
    Gao, M. Huber, C.-C. Lin, E. Magnier, Y. Ramanjooloo, R. Wainscoat, R.
    Weryk.  1.8-m Ritchey-Chretien + CCD.
H21 Astronomical Research Observatory, Westfield.  Observer R. Holmes.
    Measurers T. Linder, R. Holmes, L. Horn.  1.3-m f/4.0 astrograph + CCD,
    0.76-m f/3.0 astrograph + CCD.
V00 Kitt Peak-Bok.  Observers C. Lejoly, M. Brucker.  Measurers M. J. Brucker,
    C. E. Woodward, D. Fay, J. B. Fazekas, D. C. Fuls, A. R. Gibbs, H.
    Groeller, J. K. Hogan, R. A. Kowalski, S. M. Larson, C. Lejoly, G. J.
    Leonard, R. A. Mastaler, R. S. McMillan, D. Rankin, R. L. Seaman, A.
    Serrano, F. C. Shelly, K. W. Wierzchos.  2.25-m reflector + 4x4K mosaic
    CCD.

Orbital elements:
2023 XS13                                                Earth MOID = 0.0102 AU
Epoch 2023 Sept. 13.0 TT = JDT 2460200.5                MPC                     
M  60.71965              (2000.0)            P               Q                  
n   1.19601412     Peri.   75.85505     +0.04781348     +0.99883282             
a   0.8789790      Node   196.88999     -0.92528189     +0.04170878             
e   0.2973588      Incl.    1.35024     -0.37625430     +0.02435932             
P   0.82           H   24.33          G   0.15           U   8                  
Residuals in seconds of arc
231213 V00  0.4+  0.1-    231213 V00  0.5+  0.0     231214 H21  0.2+  0.2-
231213 V00  0.1-  0.0     231213 V00  0.3+  0.1-    231214 H21  0.2+  0.1+
231213 V00  0.0   0.0     231213 V00  0.2+  0.3-    231215 H21  0.2+  0.2+
231213 V00  0.4+  0.1+    231213 V00  0.7+  0.5-    231215 H21  0.2-  0.1-
231213 F51  0.2-  0.3+    231214 H21  0.2-  0.0
231213 F51  0.1+  0.0     231214 H21  0.2-  0.1-

Ephemeris:
2023 XS13                a,e,i = 0.88, 0.30, 1                   q = 0.6176
Date    TT    R. A. (2000) Decl.     Delta      r    Elong.  Phase     V
2023 11 15    08 40 25.0 +14 20 57   0.2938  1.0948   103.3    61.6    24.1
...
2023 11 30    08 34 14.2 +13 02 21   0.2407  1.1244   119.4    49.8    23.3
...
2023 12 08    08 21 28.1 +12 39 47   0.2120  1.1339   130.3    41.5    22.9
...
2023 12 14    08 05 31.3 +12 35 24   0.1921  1.1383   139.9    33.8    22.4
2023 12 15    08 02 14.8 +12 35 48   0.1891  1.1388   141.7    32.4    22.4
2023 12 16    07 58 47.1 +12 36 31   0.1861  1.1392   143.5    31.0    22.3
...
2023 12 22    07 34 04.1 +12 46 48   0.1704  1.1403   154.8    21.5    21.8
...
2023 12 30    06 51 35.9 +13 10 08   0.1571  1.1380   169.1     9.4    21.2
...
2024 01 14    05 24 39.7 +13 43 34   0.1607  1.1220   147.1    28.4    21.9

A. U. Tomatic                (C) Copyright 2023 MPC           M.P.E.C. 2023-X297




More information about the Iaude mailing list